Weather History for Sparta, TN

Change the Weather History Date:

Thursday, February 14, 2013

  Actual Average (KCSV) Record (KCSV)
Temperature  
Mean Temperature 44 °F 39 °F  
Max Temperature 57 °F 48 °F 68 °F (1959)
Min Temperature 30 °F 30 °F 2 °F (1960)
Degree Days  
Heating Degree Days 22    
Month to date heating degree days  
Since 1 July heating degree days  
Cooling Degree Days 0    
Month to date cooling degree days  
Year to date cooling degree days  
Moisture  
Dew Point 35 °F    
Average Humidity 83    
Maximum Humidity 100    
Minimum Humidity 48    
Precipitation  
Precipitation 0.00 in 0.16 in 2.43 in (2003)
Month to date precipitation 2.22  
Year to date precipitation 6.98  
Sea Level Pressure  
Sea Level Pressure 30.01 in    
Wind  
Wind Speed 3 mph (SW)    
Max Wind Speed 13 mph    
Max Gust Speed 17 mph    
Visibility 10 miles    
Events      
T = Trace of Precipitation, MM = Missing Value Source: NWS Daily Summary

Daily Weather History Graph

Daily Weather History Graph

Search for Another Location

Airport:

Trip Planner

Search our weather history database for the weather conditions in past years. The results will help you decide how hot, cold, wet, or windy it might be!

Date:

Astronomy

Feb. 14, 2013 Rise Set
Actual Time 6:30 AM CST 5:22 PM CST
Civil Twilight 6:04 AM CST 5:49 PM CST
Nautical Twilight 5:33 AM CST 6:19 PM CST
Astronomical Twilight 5:04 AM CST 6:49 PM CST
Moon 8:42 AM CST (2/14) 10:13 PM CST (2/14)
Length of Visible Light 11h 45m
Length of Day
10h 52m
Waxing Crescent, 22% of the Moon is Illuminated
Feb 14
Waxing Crescent
Feb 17
First Quarter
Feb 25
Full
Mar 4
Last Quarter
Mar 11
New

Hourly Weather History & Observations

Time (CST) Temp. Windchill Dew Point Humidity Pressure Visibility Wind Dir Wind Speed Gust Speed Precip Events Conditions
12:15 AM 37.4 °F - 33.8 °F 87% 30.00 in 10.0 mi Calm Calm - N/A   Overcast
12:35 AM 35.6 °F - 35.6 °F 100% 30.01 in 10.0 mi Calm Calm - N/A   Overcast
12:55 AM 35.6 °F - 35.6 °F 100% 30.00 in 10.0 mi Calm Calm - N/A   Overcast
1:15 AM 35.6 °F - 35.6 °F 100% 30.01 in 10.0 mi Calm Calm - N/A   Overcast
1:35 AM 35.6 °F - 33.8 °F 93% 30.01 in 10.0 mi Calm Calm - N/A   Overcast
1:55 AM 35.6 °F - 35.6 °F 100% 30.00 in 10.0 mi Calm Calm - N/A   Mostly Cloudy
2:15 AM 33.8 °F 30.8 °F 33.8 °F 100% 30.00 in 10.0 mi SSW 3.5 mph - N/A   Partly Cloudy
2:35 AM 33.8 °F 30.8 °F 32.0 °F 93% 30.01 in 10.0 mi SW 3.5 mph - N/A   Partly Cloudy
2:55 AM 32.0 °F - 32.0 °F 100% 30.00 in 10.0 mi Calm Calm - N/A   Scattered Clouds
3:15 AM 32.0 °F - 32.0 °F 100% 30.00 in 10.0 mi Calm Calm - N/A   Scattered Clouds
3:35 AM 30.2 °F - 30.2 °F 100% 30.00 in 10.0 mi Calm Calm - N/A   Clear
3:55 AM 30.2 °F - 28.4 °F 93% 30.01 in 10.0 mi Calm Calm - N/A   Partly Cloudy
4:15 AM 30.2 °F - 30.2 °F 100% 30.01 in 10.0 mi Calm Calm - N/A   Mostly Cloudy
4:35 AM 30.2 °F - 30.2 °F 100% 30.00 in 10.0 mi Calm Calm - N/A   Partly Cloudy
4:55 AM 30.2 °F - 30.2 °F 100% 30.00 in 9.0 mi Calm Calm - N/A   Mostly Cloudy
5:15 AM 33.8 °F 29.6 °F 32.0 °F 93% 29.99 in 10.0 mi South 4.6 mph - N/A   Overcast
5:35 AM 33.8 °F - 33.8 °F 100% 30.00 in 10.0 mi Calm Calm - N/A   Overcast
5:55 AM 33.8 °F 29.6 °F 33.8 °F 100% 30.00 in 10.0 mi South 4.6 mph - N/A   Mostly Cloudy
6:15 AM 35.6 °F 31.7 °F 33.8 °F 93% 30.00 in 10.0 mi South 4.6 mph - N/A   Mostly Cloudy
6:35 AM 33.8 °F 29.6 °F 33.8 °F 100% 30.01 in 10.0 mi South 4.6 mph - N/A   Scattered Clouds
6:55 AM 33.8 °F 30.8 °F 33.8 °F 100% 30.01 in 10.0 mi South 3.5 mph - N/A   Clear
7:15 AM 33.8 °F 30.8 °F 33.8 °F 100% 30.02 in 10.0 mi South 3.5 mph - N/A   Clear
7:35 AM 35.6 °F 31.7 °F 33.8 °F 93% 30.03 in 10.0 mi SSW 4.6 mph - N/A   Partly Cloudy
7:55 AM 37.4 °F 32.8 °F 33.8 °F 87% 30.03 in 10.0 mi South 5.8 mph - N/A   Clear
8:15 AM 37.4 °F 32.1 °F 33.8 °F 87% 30.04 in 10.0 mi SSW 6.9 mph - N/A   Clear
8:35 AM 39.2 °F 33.0 °F 35.6 °F 87% 30.04 in 10.0 mi SSW 9.2 mph - N/A   Clear
8:55 AM 41.0 °F 34.3 °F 35.6 °F 81% 30.05 in 10.0 mi SSW 11.5 mph - N/A   Clear
9:15 AM 41.0 °F 34.7 °F 37.4 °F 87% 30.04 in 10.0 mi SSW 10.4 mph - N/A   Partly Cloudy
9:35 AM 42.8 °F 37.5 °F 37.4 °F 81% 30.04 in 10.0 mi SSW 9.2 mph - N/A   Clear
9:55 AM 44.6 °F 39.7 °F 37.4 °F 76% 30.04 in 10.0 mi WSW 9.2 mph - N/A   Clear
10:15 AM 44.6 °F 40.7 °F 39.2 °F 81% 30.03 in 10.0 mi WSW 6.9 mph - N/A   Clear
10:35 AM 46.4 °F 42.4 °F 39.2 °F 76% 30.02 in 10.0 mi SW 8.1 mph - N/A   Clear
10:55 AM 46.4 °F 41.5 °F 39.2 °F 76% 30.02 in 10.0 mi SW 10.4 mph - N/A   Clear
11:15 AM 48.2 °F - 39.2 °F 71% 30.02 in 10.0 mi WSW 8.1 mph - N/A   Clear
11:35 AM 50.0 °F - 39.2 °F 66% 30.01 in 10.0 mi SW 12.7 mph - N/A   Clear
11:55 AM 50.0 °F - 39.2 °F 66% 30.00 in 10.0 mi SSW 11.5 mph - N/A   Clear
12:15 PM 51.8 °F - 39.2 °F 62% 29.99 in 10.0 mi SW 9.2 mph - N/A   Clear
12:35 PM 51.8 °F - 39.2 °F 62% 29.99 in 10.0 mi SW 6.9 mph - N/A   Clear
12:55 PM 51.8 °F - 39.2 °F 62% 29.98 in 10.0 mi SW 12.7 mph - N/A   Clear
1:15 PM 53.6 °F - 37.4 °F 54% 29.97 in 10.0 mi Variable 6.9 mph - N/A   Clear
1:35 PM 53.6 °F - 39.2 °F 58% 29.97 in 10.0 mi SW 8.1 mph 17.3 mph N/A   Clear
1:55 PM 55.4 °F - 39.2 °F 54% 29.97 in 10.0 mi WSW 9.2 mph - N/A   Clear
2:15 PM 55.4 °F - 39.2 °F 54% 29.97 in 10.0 mi SW 12.7 mph - N/A   Clear
2:35 PM 55.4 °F - 39.2 °F 54% 29.97 in 10.0 mi SW 11.5 mph - N/A   Clear
2:55 PM 55.4 °F - 37.4 °F 51% 29.97 in 10.0 mi WSW 11.5 mph - N/A   Clear
3:15 PM 57.2 °F - 37.4 °F 48% 29.98 in 10.0 mi Variable 6.9 mph - N/A   Clear
3:35 PM 55.4 °F - 37.4 °F 51% 29.98 in 10.0 mi West 8.1 mph - N/A   Clear
3:55 PM 55.4 °F - 37.4 °F 51% 29.98 in 10.0 mi West 8.1 mph - N/A   Clear
4:15 PM 55.4 °F - 37.4 °F 51% 29.98 in 10.0 mi WSW 6.9 mph - N/A   Clear
4:35 PM 53.6 °F - 37.4 °F 54% 29.98 in 10.0 mi SW 6.9 mph - N/A   Clear
4:55 PM 53.6 °F - 35.6 °F 51% 29.99 in 10.0 mi West 3.5 mph - N/A   Clear
5:15 PM 51.8 °F - 35.6 °F 54% 29.99 in 10.0 mi WSW 4.6 mph - N/A   Clear
5:35 PM 46.4 °F 44.3 °F 35.6 °F 66% 30.00 in 10.0 mi SW 4.6 mph - N/A   Clear
5:55 PM 46.4 °F 44.3 °F 35.6 °F 66% 30.00 in 10.0 mi SSW 4.6 mph - N/A   Clear
6:15 PM 41.0 °F 39.0 °F 37.4 °F 87% 30.00 in 10.0 mi SSW 3.5 mph - N/A   Clear
6:35 PM 39.2 °F - 35.6 °F 87% 30.00 in 10.0 mi Calm Calm - N/A   Clear
6:55 PM 37.4 °F - 35.6 °F 93% 30.00 in 10.0 mi Calm Calm - N/A   Clear
7:15 PM 37.4 °F - 35.6 °F 93% 30.00 in 10.0 mi Calm Calm - N/A   Clear
7:35 PM 37.4 °F 34.9 °F 35.6 °F 93% 30.00 in 10.0 mi SSW 3.5 mph - N/A   Clear
7:55 PM 35.6 °F 32.8 °F 35.6 °F 100% 30.00 in 10.0 mi SW 3.5 mph - N/A   Clear
8:15 PM 37.4 °F 33.8 °F 35.6 °F 93% 30.01 in 10.0 mi SSW 4.6 mph - N/A   Clear
8:35 PM 35.6 °F - 33.8 °F 93% 30.01 in 10.0 mi Calm Calm - N/A   Clear
8:55 PM 35.6 °F 32.8 °F 35.6 °F 100% 30.01 in 10.0 mi SSW 3.5 mph - N/A   Clear
9:15 PM 35.6 °F - 33.8 °F 93% 30.02 in 10.0 mi Calm Calm - N/A   Clear
9:35 PM 33.8 °F - 33.8 °F 100% 30.02 in 10.0 mi Calm Calm - N/A   Clear
9:55 PM 33.8 °F - 33.8 °F 100% 30.02 in 10.0 mi Calm Calm - N/A   Clear
10:15 PM 33.8 °F - 32.0 °F 93% 30.02 in 10.0 mi Calm Calm - N/A   Clear
10:35 PM 33.8 °F - 32.0 °F 93% 30.02 in 10.0 mi Calm Calm - N/A   Clear
10:55 PM 33.8 °F - 32.0 °F 93% 30.02 in 10.0 mi Calm Calm - N/A   Clear
11:15 PM 33.8 °F - 32.0 °F 93% 30.02 in 10.0 mi Calm Calm - N/A   Clear
11:35 PM 32.0 °F - 30.2 °F 93% 30.02 in 10.0 mi Calm Calm - N/A   Clear
11:55 PM 30.2 °F - 30.2 °F 100% 30.02 in 10.0 mi Calm Calm - N/A   Clear